Regional Weather Roundup
Issued by NWS

Home | Current Version | Previous Version | Graphics & Text | Print | Product List | Glossary On
Versions: 1 2 3 4 5 6 7 8 9 10 11 12 13 14 15 16 17 18 19 20 21 22 23 24 25 26 27 28 29 30 31 32 33 34 35 36 37 38 39 40 41 42 43 44 45 46 47 48 49 50
000
ASUS43 KMPX 301301
RWRMN
WEATHER ROUNDUP FOR MINNESOTA
NATIONAL WEATHER SERVICE TWIN CITIES/CHANHASSEN MN
800 AM CDT SUN AUG 30 2015


NOTE: "FAIR" INDICATES FEW OR NO CLOUDS BELOW 12,000 FEET WITH NO
SIGNIFICANT WEATHER AND/OR OBSTRUCTIONS TO VISIBILITY. N/A MEANS
CURRENT SKY AND/OR WEATHER CONDITIONS ARE NOT AVAILABLE.

MNZ060>063-068>070-301400-
   Twin Cities Metro

CITY           SKY/WX    TMP DP  RH WIND       PRES   REMARKS
TWIN CITIES    CLOUDY    63  60  90 S7        30.00S
ST PAUL        CLOUDY    63  61  93 S8        30.01S
BLAINE         CLOUDY    64  63  94 S10       29.99S
LAKEVILLE      CLOUDY    59  59 100 S6        30.02R
EDEN PRAIRIE   CLOUDY    62  60  93 S13       29.99S
SOUTH ST PAUL  CLOUDY    63  61  93 S7        30.01S
LAKE ELMO      CLOUDY    63  63 100 S9        30.02S
$$
MNZ001>005-007-008-013>017-022>024-027-028-301400-
   Northwest Minnesota

CITY           SKY/WX    TMP DP  RH WIND       PRES   REMARKS
BEMIDJI        CLOUDY    63  62  97 S8        29.89S
HALLOCK        CLOUDY    66  64  94 S13       29.76F
ROSEAU         CLOUDY    66  61  82 S12       29.80S
WARROAD        PTSUNNY   66  63  88 SW9       29.80F
THIEF RVR FALL MOSUNNY  N/A N/A N/A S8        29.81F
CROOKSTON      MOSUNNY   66  63  88 S15       29.81F
FOSSTON        SUNNY     64  63  94 S7        29.86S
DETROIT LAKES  SUNNY     64  63  94 S9        29.89F
MOORHEAD       SUNNY     64  63  94 S12       29.85S
PARK RAPIDS    CLOUDY    63  61  93 S9        29.91S
MAHNOMEN       FAIR      65  63  93 S7        29.86S
$$
MNZ006-009>011-018-025>026-301400-
   North Central Minnesota

CITY           SKY/WX    TMP DP  RH WIND       PRES   REMARKS
BAUDETTE       MOSUNNY   65  63  93 SW7       29.82R
FLAG ISLAND    MOSUNNY   66  64  94 S3        29.80R
INTL FALLS     CLOUDY    64  63  96 S8        29.85S
WASKISH        MOSUNNY   64  63  94 S5        29.85F
BIG FORK       CLOUDY    64  61  88 S10       29.90S
LONGVILLE      CLOUDY    63  63 100 S7        29.93S
GRAND RAPIDS     N/A     63  59  88 S10       29.93F
CRANE LAKE     CLOUDY    63  61  94 S6        29.89F
ORR            CLOUDY    63  57  82 S8        29.88S
COOK           MOSUNNY   61  61 100 S7        29.91S
WALKER         CLOUDY    63  61  94 S8        29.91S
$$
MNZ012-019>021-037-301400-
   Northeast Minnesota

CITY           SKY/WX    TMP DP  RH WIND       PRES   REMARKS
DULUTH         CLOUDY    64  61  90 SW9       29.96S
ELY            CLOUDY    61  59  94 SW7       29.92S
HIBBING        CLOUDY    63  61  93 S7        29.94S
EVELETH        CLOUDY    63  61  94 SW7       29.95F
DULUTH HARBOR  CLOUDY    66  63  88 SW12      29.95S
TWO HARBORS    CLOUDY    66  61  82 SW8       29.93F HAZE
SILVER BAY     CLOUDY    64  63  94 SW5       29.93S
GRAND MARAIS     N/A     51  50  96 CALM      29.93F
G MARAIS ARPRT FOG       59  55  88 S6        29.96S VSB 1/2
$$
MNZ029>031-032-039>041-046>048-054>057-064-301400-
   West Central Minnesota

CITY           SKY/WX    TMP DP  RH WIND       PRES   REMARKS
FERGUS FALLS   SUNNY     63  63 100 S10       29.89S
WHEATON        SUNNY     59  57  94 SE10      29.90S FOG
MORRIS         SUNNY     63  61  94 SE12      29.91S FOG
ALEXANDRIA     PTSUNNY   62  61  96 S10       29.94F FOG
ELBOW LAKE     FAIR      61  60  99 S14       29.90S FOG
WADENA         SUNNY     61  61 100 S6        29.92S FOG
GLENWOOD       SUNNY     63  61  94 S13       29.95S FOG
APPLETON       SUNNY     63  61  94 SE7       29.92S FOG
BENSON         MOSUNNY   63  57  82 S9        29.94S FOG
ORTONVILLE     SUNNY     61  57  88 SE8       29.91R
MADISON        SUNNY     61  61 100 S9        29.93R FOG
WILLMAR        CLOUDY    63  61  94 S7        29.98S FOG
$$
MNZ033>034-036-042>043-049>051-058-059-301400-
   Central Minnesota

CITY           SKY/WX    TMP DP  RH WIND       PRES   REMARKS
ST CLOUD       CLOUDY    60  59  96 S9        29.97R
SAUK CENTRE    CLOUDY    61  60  97 S8        29.96S FOG
PAYNESVILLE    CLOUDY    61  60  97 SE7       29.97S
AITKIN         MOSUNNY   64  57  77 S5        29.93F
PINE RIVER     CLOUDY    63  63 100 S7        29.96F
BRAINERD       CLOUDY    62  60  93 S9        29.95R
STAPLES        CLOUDY    61  61 100 S9        29.93S FOG
LONG PRAIRIE   CLOUDY    61  59  94 S7        29.95S FOG
LITTLE FALLS   CLOUDY    61  59  94 S6        29.95F
LITCHFIELD     CLOUDY    63  63 100 S3        29.99R
BUFFALO        CLOUDY    61  58  90 S8        30.00R
MAPLE LAKE     CLOUDY    61  60  97 S3        29.99S
$$
MNZ037-044-045-052-053-301400-
   East Central Minnesota

CITY           SKY/WX    TMP DP  RH WIND       PRES   REMARKS
PRINCETON      CLOUDY    63  61  94 S6        29.98S
MORA           CLOUDY    61  59  94 S8        29.99S
CAMBRIDGE      CLOUDY    64  55  72 S8        29.97S
RUSH CITY      CLOUDY    63  62  94 S7        29.98F
MOOSE LAKE     PTSUNNY   63  61  94 S8        29.95S
HINCKLEY       CLOUDY    64  63  94 S9        29.97F
CLOQUET        CLOUDY    64  61  88 S7        29.96S
MCGREGOR       MOSUNNY   63  61  94 S5        29.95S
$$
MNZ071>073-080-081-089-090-097-098-301400-
   Southwest Minnesota

CITY           SKY/WX    TMP DP  RH WIND       PRES   REMARKS
MONTEVIDEO     SUNNY     63  63 100 S9        29.96S
GRANITE FALLS  SUNNY     61  60  98 SE8       29.98S
CANBY          SUNNY     64  60  89 S7        29.95R FOG
MARSHALL       MOSUNNY   63  55  77 S12       29.98R
REDWOOD FALLS  CLOUDY    62  60  93 S13       29.98S
OLIVIA         CLOUDY    59  55  88 S10G16    29.97S
PIPESTONE      FOG       63  61  94 SW9       30.00S VSB 1/2
WINDOM         CLOUDY    63  59  88 S12       30.01S
WORTHINGTON    CLOUDY    61  57  88 S14       30.02S
JACKSON        CLOUDY    63  61  94 S9        30.03S FOG
TRACY          SUNNY     63  61  94 SW13      29.99R
SLAYTON        CLOUDY    61  60  99 S12       30.01S FOG
$$
MNZ065>067-074>077-082>085-091>093-301400-
   South Central Minnesota

CITY           SKY/WX    TMP DP  RH WIND       PRES   REMARKS
MANKATO        CLOUDY    61  57  88 S10       30.01F
NEW ULM        CLOUDY    61  61 100 S10       30.00S
ST JAMES       CLOUDY    63  61  94 S6        30.02S
FAIRMONT       CLOUDY    61  55  82 SW10      30.02S
GLENCOE        CLOUDY    61  61  99 S9        30.00R
FARIBAULT      CLOUDY    61  61 100 S7        30.03R FOG
OWATONNA       SUNNY     61  59  94 S3        30.03S FOG
WASECA         CLOUDY    59  59 100 S6        30.04S FOG
ALBERT LEA     PTSUNNY   61  61 100 S3        30.04R FOG
$$
MNZ078>079-086>088-094>096-301400-
   Southeast Minnesota

CITY           SKY/WX    TMP DP  RH WIND       PRES   REMARKS
ROCHESTER      CLOUDY    58  58 100 S7        30.06S FOG
RED WING       CLOUDY    63  61  94 SE5       30.02S FOG
STANTON        CLOUDY    63  60  91 SW7       30.01S
DODGE CENTER   CLOUDY    61  61 100 SW7       30.04F FOG
WINONA         FOG       59  59 100 CALM      30.06S VSB 1/4
AUSTIN         FOG       61  61 100 CALM      30.05S VSB<1/4
PRESTON        MOSUNNY   57  56  97 CALM      30.07S
$$
ABBREVIATIONS USED IN REMARKS
   TC - TEMPERATURES IN CELSIUS
  WCI - WIND CHILL INDEX
   HX - HEAT INDEX
  VSB - VISIBILITY
$$



USA.gov is the U.S. government's official web portal to all federal, state and local government web resources and services.